Temp
64 59 55 62 66 64 61 58 58 63 68 64 62 62 66 71 71 71 72 75 76 76 78 75 73 72 73 74 74 74 74 74 72 70 68 67 67 67 68 69 68 67 66 64
56 54 63 66 65 58 58 55 56 62 66 63 60 58 64 67 69 71 72 74 74 73 70 68 66 64 63 63 64 67 69 71 70 70 68 69 69 69 68 67 67 66 64 63
55 61 65 59 58 56 57 55 56 56 61 61 58 55 62 69 72 74 72 72 67 65 63 62 60 60 59 58 59 62 64 66 68 67 67 66 65 64 65 63 63 62 62 61
57 60 55 55 54 57 50 61 57 54 51 46 57 44 57 64 68 66 65 62 62 61 60 58 57 56 56 56 58 60 60 61 62 64 63 61 61 59 63 63 62 61 60 60
56 55 54 52 55 59 53 55 53 52 49 49 51 46 56 63 61 61 60 58 57 57 56 55 55 55 55 55 55 58 57 57 58 60 60 60 58 59 62 63 60 59 58 57
58 59 57 57 59 58 57 54 55 55 49 41 52 51 53 59 60 55 56 55 54 55 55 55 55 55 54 54 54 54 55 54 55 56 57 56 56 56 57 58 55 56 56 55
58 55 61 57 52 56 52 49 41 39 39 39 51 46 52 61 62 60 54 52 53 53 52 52 52 52 51 51 52 52 52 51 53 53 53 54 53 53 54 55 55 55 55 54
47 45 53 55 54 52 51 49 39 29 33 38 47 39 51 62 56 55 53 52 52 51 51 50 51 51 51 50 51 52 50 50 50 50 51 52 51 52 53 53 53 54 55 56
46 47 53 53 55 55 47 41 50 35 35 31 41 50 58 62 56 53 51 51 49 50 50 50 51 51 51 50 50 50 49 48 48 49 49 49 49 49 49 50 51 53 53 53
46 36 51 52 52 53 47 51 39 39 27 28 39 43 47 50 52 50 47 47 48 49 49 50 50 50 50 50 50 50 49 47 47 47 47 48 47 48 48 48 47 47 49 50
47 40 44 50 47 46 44 41 41 40 35 30 29 39 59 52 50 47 46 46 46 46 46 48 49 50 49 49 49 48 47 46 45 45 45 45 45 45 45 45 44 44 45 46
51 42 36 43 53 55 51 46 46 33 32 34 35 35 50 46 44 45 43 44 44 45 45 46 47 47 48 47 46 46 46 45 44 44 44 44 44 43 43 43 43 42 42 43
47 39 30 34 46 46 42 41 38 37 34 30 27 33 45 43 42 42 42 41 42 43 44 45 45 45 45 46 45 45 44 44 43 43 42 42 42 40 40 40 40 40 40 40
45 39 33 29 37 43 37 40 41 36 29 32 32 35 45 49 47 45 43 41 41 42 42 43 43 43 44 45 45 44 43 44 42 41 40 39 39 39 39 38 38 38 38 38
43 31 36 37 39 39 35 34 36 35 36 29 34 35 41 45 45 42 41 42 41 41 41 42 41 41 43 43 43 44 44 43 42 39 38 38 37 38 36 35 35 36 36 36
41 29 33 27 35 36 32 36 38 37 38 37 37 36 48 46 42 41 42 41 41 42 43 42 42 42 42 42 42 42 42 41 39 37 35 36 35 34 33 32 32 34 34 35
33 30 27 22 32 31 24 30 34 36 40 38 32 37 34 36 37 39 40 40 40 41 42 42 43 43 42 42 42 40 40 40 37 35 34 33 32 31 31 32 31 31 31 32
31 29 28 21 24 13 32 43 39 34 36 37 34 30 33 35 39 40 42 40 39 41 42 43 44 44 42 42 41 41 38 36 34 32 32 32 31 30 31 30 29 29 30 30
37 31 23 18 19 26 30 35 34 31 31 36 32 32 36 37 38 39 45 45 42 42 43 43 44 43 41 40 39 35 34 33 32 32 31 32 31 29 28 25 26 28 26 26
32 34 26 21 13 11 29 38 37 35 22 31 31 31 32 34 25 33 42 42 42 43 43 42 43 40 38 36 34 32 31 30 29 30 30 31 30 28 25 25 24 25 24 24
22 22 18 19 17 23 34 34 36 18 23 31 33 34 34 30 34 39 41 41 42 41 41 41 38 34 33 33 31 28 28 27 29 28 27 27 27 26 25 24 23 22 21 21
23 20 19 19 15 12 34 31 24 34 37 35 37 38 36 38 38 39 40 40 39 37 35 33 29 29 30 29 26 24 23 25 24 22 21 20 20 20 21 19 18 18 17 16
19 26 23 24 24 37 35 35 39 39 34 36 37 38 38 37 37 38 37 35 34 31 29 28 25 23 24 24 22 17 19 19 17 13 11 11 13 13 14 13 13 13 14 14
30 36 27 26 31 33 36 39 40 40 38 40 40 38 37 34 34 29 29 28 27 26 25 23 20 18 17 18 17 14 14 13 8 6 6 7 7 7 8 10 11 10 10 10
32 33 28 27 32 34 36 38 39 39 39 38 33 32 32 30 27 27 24 23 23 22 21 19 15 14 13 14 12 11 10 8 5 4 5 5 6 6 6 8 7 8 10 10
34 30 26 24 34 34 35 39 41 38 37 37 31 28 26 24 23 23 20 21 19 17 15 13 12 11 9 8 7 7 7 5 3 2 4 4 5 5 6 5 5 12 14 16
MSLP
1013.72 1013.31 1012.37 1011.59 1011.22 1010.87 1010.59 1010.06 1009.03 1008.80 1008.95 1008.77 1008.22 1007.48 1007.43 1006.96 1006.20 1004.77 1005.24 1005.15 1005.01 1005.41 1006.07 1007.17 1007.78 1008.13 1007.82 1007.67 1007.58 1007.45 1007.40 1007.97 1008.80 1009.17 1009.69 1009.96 1010.19 1010.99 1011.44 1011.79 1012.23 1012.89 1013.61 1014.27
1013.88 1012.74 1012.03 1011.69 1011.53 1011.65 1011.15 1010.34 1009.70 1009.07 1008.96 1008.71 1008.22 1007.39 1006.97 1006.33 1005.40 1005.02 1004.94 1005.25 1005.70 1006.53 1007.55 1008.44 1009.18 1009.63 1009.87 1009.76 1009.49 1008.80 1008.44 1008.49 1009.09 1009.60 1009.86 1010.08 1010.31 1010.67 1011.20 1011.70 1011.95 1012.41 1013.02 1013.69
1013.07 1012.27 1012.18 1012.48 1012.04 1011.60 1010.94 1010.46 1009.87 1009.57 1009.48 1009.54 1008.47 1006.99 1005.75 1005.09 1004.69 1004.90 1005.47 1006.26 1007.69 1008.56 1009.37 1010.12 1010.53 1010.80 1010.89 1010.86 1010.64 1010.23 1009.82 1009.73 1009.86 1010.23 1010.57 1010.62 1011.01 1011.42 1011.39 1011.74 1012.05 1012.51 1012.95 1013.45
1012.51 1012.60 1012.85 1012.86 1012.65 1012.29 1011.21 1011.12 1010.82 1010.61 1010.52 1009.81 1009.57 1006.76 1006.29 1005.16 1004.43 1005.76 1007.33 1008.68 1009.69 1010.46 1011.01 1011.67 1012.05 1012.29 1012.47 1012.38 1012.19 1011.48 1010.96 1010.73 1010.85 1010.99 1011.40 1011.50 1011.43 1011.69 1011.50 1011.82 1012.06 1012.40 1012.82 1013.18
1012.13 1012.28 1012.33 1012.53 1012.07 1012.13 1011.81 1012.24 1012.00 1011.59 1010.98 1010.13 1009.67 1008.43 1005.49 1005.24 1005.06 1006.42 1008.68 1010.19 1011.06 1011.91 1012.78 1013.02 1013.16 1013.25 1013.25 1013.01 1012.50 1012.40 1012.44 1012.10 1011.71 1011.56 1011.76 1011.99 1012.26 1012.30 1011.95 1011.76 1012.16 1012.57 1012.93 1013.35
1012.18 1012.68 1012.48 1012.10 1012.35 1012.29 1012.31 1012.44 1011.91 1011.25 1011.31 1009.53 1008.09 1007.66 1006.13 1005.43 1006.48 1008.00 1009.58 1011.07 1012.11 1013.10 1013.62 1013.72 1014.39 1014.35 1014.20 1013.97 1014.03 1013.85 1013.26 1013.05 1012.78 1012.89 1012.66 1012.41 1012.66 1012.67 1012.57 1012.25 1012.50 1012.61 1012.84 1013.12
1011.68 1011.80 1011.46 1012.25 1012.26 1012.77 1012.96 1012.53 1011.60 1011.22 1010.87 1009.38 1008.97 1008.19 1006.92 1006.86 1007.48 1008.80 1010.60 1012.15 1013.03 1013.74 1014.23 1014.84 1014.66 1015.03 1015.69 1015.55 1014.93 1014.67 1013.89 1013.08 1013.53 1013.48 1013.63 1013.71 1013.46 1013.17 1012.97 1012.55 1012.51 1012.49 1012.61 1012.90
1011.69 1011.11 1011.95 1012.43 1012.21 1012.00 1012.57 1012.91 1012.95 1012.46 1011.68 1010.62 1010.24 1008.31 1007.34 1007.22 1009.05 1010.48 1011.78 1012.82 1013.76 1014.58 1015.20 1015.41 1015.86 1016.00 1015.85 1016.03 1016.20 1015.56 1013.91 1013.97 1014.45 1014.32 1014.40 1014.31 1014.10 1013.96 1013.96 1013.38 1012.73 1012.57 1012.54 1012.54
1012.20 1011.85 1012.70 1012.99 1012.94 1013.03 1013.17 1013.61 1013.86 1014.32 1013.58 1012.62 1010.05 1008.24 1007.84 1007.72 1009.07 1011.05 1012.36 1013.59 1014.57 1015.03 1015.16 1015.57 1015.87 1016.18 1016.27 1016.36 1016.23 1015.61 1015.02 1015.34 1015.38 1015.26 1015.19 1015.08 1015.10 1014.69 1014.29 1014.14 1013.62 1012.94 1012.89 1012.78
1013.97 1013.70 1013.03 1013.03 1013.50 1013.58 1013.89 1013.85 1014.16 1014.60 1014.07 1012.20 1009.56 1007.89 1007.11 1008.12 1009.66 1011.49 1013.01 1013.90 1014.59 1015.12 1015.13 1015.40 1015.89 1016.29 1016.43 1016.48 1016.33 1015.87 1015.41 1016.33 1016.44 1016.19 1016.02 1015.78 1015.33 1015.27 1015.04 1014.79 1014.27 1013.82 1013.47 1013.29
1014.98 1015.29 1013.58 1013.63 1013.01 1013.01 1013.99 1014.20 1014.61 1014.88 1014.46 1012.66 1010.83 1008.65 1007.44 1009.28 1010.88 1012.53 1014.22 1015.11 1015.54 1015.88 1015.83 1015.82 1015.94 1016.05 1016.53 1016.60 1016.16 1016.32 1016.62 1016.87 1016.88 1016.83 1016.66 1016.26 1015.87 1015.71 1015.52 1015.25 1014.91 1014.42 1013.88 1013.47
1015.15 1015.47 1014.56 1013.46 1012.94 1013.08 1013.34 1013.67 1014.30 1014.45 1013.98 1013.24 1011.44 1009.72 1010.18 1011.30 1012.65 1013.82 1014.87 1015.53 1016.11 1016.60 1016.59 1016.62 1016.62 1016.32 1016.07 1016.58 1017.23 1016.80 1017.13 1017.47 1017.65 1017.42 1017.20 1016.90 1016.46 1016.04 1015.85 1015.86 1015.39 1015.16 1014.80 1014.27
1016.27 1016.04 1015.61 1014.08 1013.05 1013.46 1013.87 1014.60 1015.30 1015.10 1014.62 1013.23 1012.55 1010.82 1011.65 1012.56 1013.22 1014.32 1015.23 1015.65 1016.21 1016.86 1017.07 1016.66 1016.64 1016.82 1016.92 1016.83 1017.02 1017.41 1017.68 1017.68 1017.41 1017.41 1017.18 1016.93 1016.74 1016.39 1015.92 1015.79 1015.71 1015.33 1015.11 1014.53
1017.59 1017.21 1016.78 1016.10 1014.66 1014.39 1014.84 1014.81 1015.05 1015.37 1014.53 1013.58 1012.96 1012.32 1011.75 1012.06 1012.67 1013.82 1015.11 1015.92 1016.36 1016.62 1016.96 1017.14 1017.04 1017.12 1017.31 1017.34 1017.44 1017.64 1017.85 1017.94 1018.09 1017.74 1017.47 1016.97 1017.05 1016.59 1016.25 1015.98 1015.67 1015.33 1014.80 1014.26
1018.48 1017.90 1017.53 1016.85 1016.31 1016.09 1015.92 1015.86 1014.98 1014.74 1014.57 1014.17 1013.01 1012.76 1012.49 1012.99 1013.60 1014.44 1015.42 1015.88 1016.17 1016.53 1017.01 1017.47 1017.26 1017.16 1017.35 1017.47 1017.59 1017.72 1017.77 1017.71 1018.13 1017.82 1017.38 1017.13 1017.06 1016.49 1016.28 1015.89 1015.45 1014.94 1014.66 1014.20
1019.18 1018.71 1018.31 1017.48 1017.16 1016.90 1016.11 1015.29 1014.32 1014.44 1014.08 1013.54 1013.55 1012.95 1013.15 1013.76 1014.65 1015.13 1015.36 1015.92 1016.41 1016.63 1016.58 1016.89 1016.79 1016.98 1017.37 1017.73 1017.69 1017.76 1017.91 1017.90 1018.13 1017.71 1017.48 1017.24 1016.89 1016.51 1016.15 1015.79 1015.48 1014.93 1014.57 1014.17
1020.00 1019.53 1019.05 1017.73 1017.65 1017.07 1015.74 1014.20 1014.55 1014.00 1013.71 1013.84 1013.56 1013.69 1014.34 1014.83 1015.47 1015.61 1015.96 1016.29 1016.49 1016.48 1016.33 1016.28 1016.49 1016.81 1017.10 1017.35 1017.47 1017.80 1018.08 1018.00 1017.87 1017.55 1017.12 1016.88 1016.66 1016.17 1015.76 1015.31 1014.96 1014.51 1014.21 1013.74
1019.52 1019.85 1020.11 1018.57 1018.67 1016.86 1014.17 1014.16 1014.37 1014.15 1013.97 1014.20 1014.61 1015.32 1015.77 1015.97 1016.07 1016.04 1016.18 1016.19 1016.25 1016.15 1016.10 1015.98 1016.12 1016.47 1016.84 1017.04 1017.13 1017.23 1017.38 1017.45 1017.41 1017.22 1016.94 1016.64 1016.24 1015.75 1015.40 1015.20 1014.82 1014.37 1013.90 1013.45
1019.42 1019.88 1019.86 1019.15 1017.83 1015.68 1015.19 1015.10 1014.82 1014.76 1014.19 1014.66 1015.33 1015.95 1016.09 1016.31 1016.15 1015.62 1015.53 1015.66 1015.85 1016.03 1016.06 1016.04 1015.99 1016.17 1016.68 1017.00 1017.13 1017.31 1017.20 1017.13 1017.00 1016.73 1016.40 1016.02 1015.77 1015.38 1015.10 1014.73 1014.33 1013.94 1013.76 1013.15
1019.51 1019.49 1019.74 1019.06 1018.19 1016.24 1015.28 1015.17 1015.73 1015.77 1014.98 1015.34 1015.87 1016.30 1016.41 1016.42 1016.15 1015.48 1015.61 1015.90 1015.89 1016.02 1016.00 1015.94 1015.94 1016.41 1016.85 1017.24 1017.47 1017.40 1017.13 1016.89 1016.62 1016.22 1015.78 1015.40 1015.10 1014.82 1014.49 1014.31 1014.04 1013.69 1013.53 1012.64
1019.57 1019.55 1018.99 1018.38 1017.57 1016.11 1015.58 1015.77 1016.32 1016.14 1015.26 1015.57 1016.13 1016.37 1016.32 1016.30 1016.10 1015.76 1015.69 1015.64 1015.87 1016.00 1016.06 1016.18 1016.67 1017.16 1017.50 1017.66 1017.70 1017.40 1017.17 1017.03 1016.78 1016.43 1016.02 1015.51 1015.03 1014.59 1014.15 1013.73 1013.39 1013.02 1012.55 1011.93
1018.79 1018.55 1018.17 1018.24 1017.45 1016.37 1015.81 1016.15 1016.24 1015.10 1015.26 1015.64 1015.59 1015.65 1015.72 1015.76 1015.65 1015.67 1015.74 1015.74 1015.93 1016.48 1016.86 1017.38 1017.63 1017.74 1017.88 1018.22 1018.22 1017.84 1017.57 1017.43 1017.17 1016.88 1016.39 1015.92 1015.48 1015.00 1014.35 1013.74 1012.97 1012.63 1012.04 1011.17
1018.52 1017.61 1017.42 1017.45 1016.06 1015.21 1015.70 1015.31 1015.17 1015.19 1015.21 1015.05 1015.32 1015.18 1015.33 1015.44 1015.56 1015.68 1016.00 1016.50 1016.94 1017.57 1017.99 1018.34 1018.68 1018.62 1018.55 1018.80 1018.99 1018.54 1018.14 1018.13 1017.79 1017.41 1016.89 1016.43 1015.93 1015.30 1014.65 1013.80 1012.85 1012.04 1011.32 1010.36
1016.91 1016.38 1016.34 1016.13 1015.67 1014.60 1014.94 1014.61 1014.53 1014.45 1014.53 1014.52 1014.81 1014.96 1015.44 1015.73 1016.02 1016.56 1017.13 1017.69 1018.18 1018.57 1018.83 1019.18 1019.34 1019.22 1019.02 1019.24 1019.35 1019.29 1018.89 1018.65 1018.27 1017.55 1016.92 1016.33 1015.67 1014.88 1014.33 1013.60 1012.70 1011.64 1010.72 1009.72
1015.44 1015.25 1014.95 1014.78 1014.14 1014.21 1014.11 1013.93 1013.86 1013.92 1014.15 1014.42 1015.03 1015.58 1016.06 1016.60 1017.06 1017.55 1018.03 1018.58 1018.98 1019.29 1019.60 1019.91 1020.05 1019.83 1019.54 1019.52 1019.42 1019.48 1019.15 1018.84 1018.21 1017.55 1016.81 1015.99 1015.18 1014.31 1013.37 1012.74 1012.04 1011.11 1010.27 1009.50
1014.25 1013.88 1014.18 1013.18 1013.11 1013.25 1012.99 1013.04 1013.31 1013.67 1013.91 1014.40 1015.27 1016.21 1016.84 1017.53 1018.09 1018.57 1019.03 1019.50 1019.99 1020.25 1020.54 1020.58 1020.57 1020.44 1020.17 1019.90 1019.49 1019.18 1018.99 1018.66 1017.97 1016.98 1016.14 1015.30 1014.47 1013.53 1012.56 1011.48 1010.35 1009.89 1008.64 1007.55
Wind_Speed
8 8 11 15 16 20 22 23 25 21 19 23 24 24 19 20 23 25 20 17 11 9 14 16 15 16 15 12 9 5 4 7 7 7 7 8 9 8 8 8 10 11 11 13
4 12 16 16 17 13 18 22 23 21 17 16 18 24 25 24 24 21 17 12 5 10 14 16 18 18 18 16 15 13 8 3 4 5 5 6 7 7 7 7 8 10 11 12
15 15 15 12 15 18 20 19 22 25 20 19 20 20 14 8 14 10 8 10 17 15 15 16 17 19 17 18 17 15 12 10 6 3 3 3 4 3 5 6 6 7 9 10
9 2 4 10 14 17 19 16 15 14 13 12 5 10 15 19 13 12 14 16 15 15 14 14 14 16 17 16 14 15 15 13 9 6 4 5 4 6 6 6 5 6 9 11
2 5 5 8 9 11 14 6 9 9 11 15 13 11 4 5 8 16 13 14 15 15 15 16 16 15 16 16 15 14 16 14 14 10 7 4 4 6 6 4 2 5 6 9
13 3 4 5 8 8 5 10 14 16 8 9 13 14 6 3 8 13 13 12 12 12 13 14 14 15 16 15 13 13 16 16 16 13 10 8 7 7 6 5 4 3 5 6
11 12 9 4 7 8 7 8 6 6 7 8 5 7 9 11 8 9 10 10 10 11 12 13 14 14 15 15 14 11 14 17 16 15 14 13 10 8 9 7 4 5 5 5
10 12 6 9 7 4 6 3 3 6 8 15 15 10 10 3 12 12 10 11 10 10 9 10 10 10 10 11 12 13 16 16 15 15 14 13 13 8 7 7 6 6 6 5
9 6 4 4 2 3 4 5 5 4 8 5 10 21 19 14 13 10 10 9 8 8 8 9 9 10 10 11 12 14 15 14 14 14 12 12 11 11 10 11 9 6 7 7
3 9 4 3 2 8 5 4 5 5 7 15 14 18 13 9 5 7 6 7 9 9 10 10 9 10 10 11 11 13 15 14 13 13 11 10 12 12 11 9 9 9 9 9
4 4 5 5 7 12 3 5 5 4 5 11 13 9 5 10 5 8 5 5 6 7 8 8 8 8 10 11 13 13 13 13 13 12 11 10 10 11 10 10 12 12 10 8
7 4 9 22 21 19 14 16 17 10 8 9 12 12 9 10 8 3 2 3 5 4 6 7 8 9 10 11 11 13 12 10 10 11 9 9 10 9 9 10 10 10 11 11
5 3 6 8 13 1 5 5 7 12 5 14 16 11 7 8 6 3 6 3 2 3 5 7 8 9 10 10 10 10 11 11 10 10 10 9 9 9 9 9 9 10 10 11
1 7 12 13 18 21 21 22 17 11 7 12 11 15 21 18 10 5 4 5 4 2 3 6 6 8 8 8 8 9 9 8 9 10 9 8 8 8 9 9 8 8 9 10
5 10 14 17 19 18 15 17 24 22 19 20 21 23 23 20 15 6 3 4 4 5 5 5 5 6 8 10 9 9 10 9 9 10 10 10 9 9 8 9 10 9 9 9
5 10 11 16 19 20 23 25 27 23 23 25 24 27 21 9 2 4 3 4 7 9 7 5 5 6 7 8 9 8 11 10 9 9 9 9 9 9 9 9 9 9 9 10
6 6 6 17 16 16 15 22 21 25 25 25 23 16 7 6 3 4 6 9 10 11 12 8 8 7 6 7 8 9 10 9 9 10 11 10 10 10 10 10 11 11 11 11
13 13 9 13 10 19 11 7 12 14 16 15 9 2 4 1 6 8 8 9 11 13 13 12 10 11 9 9 9 8 6 8 9 10 12 12 11 12 11 11 11 12 12 13
17 14 9 9 13 18 22 17 15 10 16 2 5 7 2 8 11 13 10 10 12 13 11 11 11 10 10 10 9 8 9 10 11 13 13 13 12 12 12 13 15 14 12 13
6 13 12 6 10 13 11 5 1 3 12 7 4 4 6 10 9 11 14 12 12 12 10 11 10 8 9 9 8 9 11 12 13 14 15 14 14 13 14 14 15 14 14 16
3 5 14 13 14 13 8 2 2 8 8 8 5 7 11 11 11 14 13 13 11 10 11 10 10 9 10 10 11 13 13 13 13 14 15 16 16 16 15 15 15 15 16 17
8 7 7 6 9 14 3 5 8 7 4 5 12 13 13 14 12 12 13 11 10 11 10 10 10 10 11 11 11 14 15 15 15 15 17 17 17 14 15 19 18 18 17 19
9 11 7 8 7 8 9 9 9 11 12 17 18 15 13 13 13 11 11 9 9 10 9 8 8 12 12 11 10 14 16 16 17 17 17 17 18 17 16 17 18 16 16 15
17 19 15 17 18 23 19 20 19 19 18 17 16 12 9 12 7 4 5 6 7 8 9 9 10 12 14 11 12 13 16 15 15 17 17 15 16 16 16 14 14 14 14 15
13 10 14 15 22 18 20 20 19 19 18 15 2 3 5 3 4 4 5 6 8 9 9 9 11 12 15 14 15 13 14 14 15 15 15 15 13 15 15 14 13 14 15 17
17 19 14 16 20 16 19 17 14 15 16 13 5 6 5 2 4 4 5 6 7 9 10 11 12 13 14 14 15 15 13 14 16 17 14 13 13 13 13 14 14 23 31 34
Wind_Direction
191 225 223 252 254 260 277 284 282 283 288 291 289 291 291 290 283 268 281 285 294 321 46 37 29 23 14 17 3 349 287 226 224 213 217 214 214 209 219 220 212 207 199 200
195 245 262 279 282 289 282 280 281 283 281 289 294 290 295 279 275 280 285 299 344 64 52 40 31 31 26 24 16 10 6 311 216 248 232 240 231 227 223 221 220 209 205 199
261 284 307 290 276 270 265 274 284 291 305 300 288 284 265 267 274 306 1 85 74 62 52 42 37 33 30 30 27 29 29 25 8 320 285 247 283 335 249 229 228 219 220 207
260 11 321 293 275 272 283 295 310 307 310 297 20 289 302 275 270 94 71 71 60 51 56 52 45 37 32 28 25 43 47 45 39 27 336 313 265 261 247 250 234 212 210 216
99 202 222 262 256 272 280 348 317 300 277 283 270 254 274 264 249 113 92 64 58 56 41 39 36 36 36 32 30 34 40 43 38 39 18 351 310 295 299 292 217 226 215 223
258 112 229 233 300 245 319 285 275 259 272 258 264 244 285 44 32 99 94 77 66 51 46 46 38 32 31 32 33 29 45 44 38 31 27 21 349 325 309 297 279 241 231 223
285 231 209 211 254 208 231 256 290 265 211 264 90 328 258 302 96 124 120 97 81 69 55 41 40 36 25 22 24 32 34 41 35 36 28 13 2 343 322 314 299 274 262 242
279 290 179 157 224 315 194 308 221 275 286 303 312 269 266 95 108 107 105 99 88 67 56 52 42 39 38 32 25 22 35 33 25 28 26 25 18 2 335 329 326 313 302 272
305 257 89 233 344 284 113 216 223 250 249 264 251 266 270 237 134 128 116 97 77 67 56 41 37 32 30 26 30 29 35 31 26 20 16 17 16 16 6 347 337 329 315 308
55 295 276 248 258 221 216 343 230 173 260 264 260 268 256 166 173 128 74 59 40 29 37 38 34 32 30 27 24 31 34 27 19 18 16 8 11 5 5 6 4 348 329 319
130 181 272 254 224 263 215 238 218 297 238 258 268 254 233 358 16 122 88 42 27 21 23 21 23 31 29 20 22 24 22 21 15 12 5 3 10 9 3 358 355 354 339 329
232 243 260 272 284 285 278 266 261 241 228 222 255 262 8 50 89 59 8 359 15 11 23 21 14 15 25 23 10 13 11 15 7 3 358 1 3 3 3 356 354 349 342 333
27 273 287 283 277 270 240 352 338 316 278 261 276 281 72 137 149 207 247 253 284 327 7 26 22 16 7 11 12 1 355 353 356 353 353 351 356 358 360 352 344 342 337 333
286 248 244 260 278 302 292 296 283 250 265 291 267 287 287 285 293 225 225 224 239 244 335 347 357 355 353 349 352 349 343 346 335 335 336 339 338 337 346 337 331 329 331 330
264 258 272 275 279 283 283 280 275 269 271 267 280 285 286 297 303 327 350 340 291 262 260 280 319 328 326 329 327 331 329 335 327 324 326 325 321 324 321 323 322 319 318 315
199 267 290 276 275 275 273 267 265 272 275 271 274 273 279 353 42 261 278 302 310 311 269 282 306 305 303 298 302 308 311 315 323 315 307 307 310 310 310 308 309 299 309 306
258 261 276 267 283 291 270 256 262 261 266 272 276 300 341 326 308 322 322 310 313 320 310 281 290 301 308 296 286 278 288 297 300 300 301 301 302 300 304 308 311 308 305 302
250 250 256 272 292 259 264 307 309 292 290 292 296 99 111 8 315 313 298 287 297 315 312 302 293 298 308 307 305 298 289 283 280 278 285 289 293 293 292 299 298 302 303 301
237 252 259 249 247 280 299 294 295 309 285 215 210 173 164 338 322 299 311 330 325 316 301 299 295 297 308 312 325 312 296 291 285 284 286 281 279 279 283 292 297 297 298 294
237 236 236 226 252 261 296 348 5 309 274 145 136 179 306 323 300 296 322 316 308 305 303 308 319 321 310 327 325 307 302 301 299 300 297 293 286 279 277 276 279 283 287 284
191 227 228 240 253 262 275 66 101 250 300 149 173 282 292 284 277 293 300 295 300 308 322 330 326 328 321 331 328 312 309 306 308 307 302 297 292 288 284 282 280 282 284 282
229 244 224 237 261 270 65 110 226 288 146 227 288 303 289 286 288 288 292 298 321 334 342 345 329 319 324 333 328 314 308 316 318 313 305 302 300 298 295 292 287 283 281 278
240 238 265 234 253 259 189 248 248 265 274 285 294 293 291 285 281 291 300 322 326 329 327 331 327 314 313 326 327 311 310 317 315 313 307 304 301 297 293 290 287 285 280 276
261 255 253 255 248 257 269 269 266 273 275 281 291 292 280 270 291 300 303 305 310 310 318 327 322 310 307 319 315 307 312 314 310 304 302 302 298 296 292 285 283 282 280 278
249 268 253 256 258 266 262 263 264 265 269 273 328 257 263 270 270 292 301 308 309 316 320 325 314 305 307 313 309 310 307 308 302 300 299 297 292 290 291 284 283 278 275 274
244 250 257 260 263 264 270 278 284 285 282 276 216 198 178 209 280 298 295 311 315 315 318 310 306 304 302 303 303 305 307 307 304 301 297 293 293 289 287 286 283 276 282 284